Weather History for KMGY - July, 2013

Change the Weather History Date:

Sunday, July 7, 2013

  Actual Average (KDAY) Record (KDAY)
Temperature  
Mean Temperature 72 °F 74 °F  
Max Temperature 81 °F 84 °F 102 °F (2012)
Min Temperature 64 °F 65 °F 48 °F (1983)
Degree Days  
Heating Degree Days 0 0  
Month to date heating degree days 0  
Since 1 June heating degree days 22  
Since 1 July heating degree days 0  
Cooling Degree Days 7 9  
Month to date cooling degree days 63  
Year to date cooling degree days 323  
Since 1 June cooling degree days 253  
Growing Degree Days 22 (Base 50)    
Moisture  
Dew Point 65 °F    
Average Humidity 84    
Maximum Humidity 100    
Minimum Humidity 58    
Precipitation  
Precipitation 0.01 in 0.15 in 2.13 in (1915)
Month to date precipitation 0.98  
Year to date precipitation 22.19  
Snow  
Snow 0.00 in 0.00 in 0.00 in ()
Month to date snowfall 0.0  
Since 1 June snowfall 0.0  
Since 1 July snowfall 0.0  
Snow Depth -    
Sea Level Pressure  
Sea Level Pressure 30.09 in    
Wind  
Wind Speed 4 mph (SSW)    
Max Wind Speed 9 mph    
Max Gust Speed -    
Visibility 9 miles    
Events      
T = Trace of Precipitation, MM = Missing Value Source: NWS Daily Summary

Daily Weather History Graph

Daily Weather History Graph

Search for Another Location

Airport or City:

Trip Planner

Search our weather history database for the weather conditions in past years. The results will help you decide how hot, cold, wet, or windy it might be!

Date:

Astronomy

Jul. 07, 2013 Rise Set
Actual Time 6:16 AM EDT 9:06 PM EDT
Civil Twilight 5:44 AM EDT 9:38 PM EDT
Nautical Twilight 5:04 AM EDT 10:19 PM EDT
Astronomical Twilight 4:17 AM EDT 11:05 PM EDT
Moon 5:51 AM EDT (7/7) 8:30 PM EDT (7/7)
Length of Visible Light 15h 54m
Length of Day
14h 50m
Waning Crescent, 0% of the Moon is Illuminated
Jul 7
Waning Crescent
Jul 8
New
Jul 15
First Quarter
Jul 22
Full
Jul 29
Last Quarter

Hourly Weather History & Observations

Time (EDT) Temp. Heat Index Dew Point Humidity Pressure Visibility Wind Dir Wind Speed Gust Speed Precip Events Conditions
12:53 AM 68.0 °F - 66.0 °F 93% 30.09 in 10.0 mi SSW 4.6 mph - N/A   Overcast
1:35 AM 66.2 °F - 64.4 °F 94% 30.11 in 10.0 mi SSW 4.6 mph - N/A   Partly Cloudy
1:53 AM 66.9 °F - 64.9 °F 93% 30.09 in 10.0 mi SSW 3.5 mph - N/A   Clear
2:53 AM 66.0 °F - 64.0 °F 93% 30.08 in 10.0 mi SSW 3.5 mph - N/A   Partly Cloudy
3:28 AM 66.2 °F - 64.4 °F 94% 30.10 in 9.0 mi Calm Calm - N/A   Scattered Clouds
3:35 AM 66.2 °F - 64.4 °F 94% 30.10 in 9.0 mi South 3.5 mph - N/A   Mostly Cloudy
3:53 AM 66.0 °F - 64.0 °F 93% 30.07 in 9.0 mi Calm Calm - N/A   Mostly Cloudy
4:02 AM 64.4 °F - 64.4 °F 100% 30.09 in 8.0 mi Calm Calm - N/A   Scattered Clouds
4:53 AM 64.9 °F - 64.0 °F 97% 30.07 in 6.0 mi SSE 5.8 mph - N/A   Scattered Clouds
5:23 AM 64.4 °F - 64.4 °F 100% 30.09 in 8.0 mi South 4.6 mph - N/A   Mostly Cloudy
5:37 AM 64.4 °F - 64.4 °F 100% 30.09 in 7.0 mi Calm Calm - N/A   Mostly Cloudy
5:53 AM 64.9 °F - 63.0 °F 93% 30.08 in 7.0 mi South 3.5 mph - N/A   Partly Cloudy
6:53 AM 64.9 °F - 64.0 °F 97% 30.08 in 5.0 mi Calm Calm - N/A   Partly Cloudy
7:10 AM 64.4 °F - 64.4 °F 100% 30.10 in 5.0 mi South 5.8 mph - N/A   Scattered Clouds
7:19 AM 64.4 °F - 64.4 °F 100% 30.10 in 4.0 mi South 3.5 mph - N/A   Mostly Cloudy
7:48 AM 66.2 °F - 64.4 °F 94% 30.11 in 7.0 mi South 4.6 mph - 0.01 in   Overcast
7:53 AM 66.0 °F - 64.9 °F 96% 30.09 in 7.0 mi South 5.8 mph - 0.01 in   Overcast
8:53 AM 66.9 °F - 64.9 °F 93% 30.11 in 10.0 mi SSW 6.9 mph - N/A   Overcast
9:53 AM 69.1 °F - 64.9 °F 87% 30.12 in 10.0 mi SSW 4.6 mph - N/A   Overcast
10:38 AM 69.8 °F - 64.4 °F 83% 30.13 in 10.0 mi SW 4.6 mph - N/A   Overcast
10:53 AM 70.0 °F - 64.9 °F 84% 30.11 in 10.0 mi WSW 5.8 mph - 0.00 in   Mostly Cloudy
11:17 AM 71.6 °F - 64.4 °F 78% 30.13 in 10.0 mi SW 5.8 mph - N/A   Overcast
11:45 AM 69.8 °F - 64.4 °F 83% 30.13 in 10.0 mi SSW 4.6 mph - N/A   Overcast
11:53 AM 70.0 °F - 64.9 °F 84% 30.12 in 10.0 mi WSW 5.8 mph - N/A   Overcast
12:53 PM 72.0 °F - 64.9 °F 78% 30.11 in 10.0 mi WSW 4.6 mph - N/A   Overcast
1:46 PM 73.4 °F - 64.4 °F 73% 30.12 in 10.0 mi WSW 3.5 mph - N/A   Mostly Cloudy
1:53 PM 73.9 °F - 66.0 °F 76% 30.10 in 10.0 mi Variable 4.6 mph - N/A   Mostly Cloudy
2:44 PM 75.2 °F - 66.2 °F 73% 30.11 in 10.0 mi Variable 5.8 mph - N/A   Overcast
2:53 PM 75.9 °F - 66.9 °F 74% 30.09 in 10.0 mi Calm Calm - N/A   Mostly Cloudy
3:07 PM 77.0 °F - 66.2 °F 69% 30.10 in 10.0 mi Calm Calm - N/A   Mostly Cloudy
3:19 PM 77.0 °F - 64.4 °F 65% 30.10 in 10.0 mi SW 5.8 mph - N/A   Scattered Clouds
3:53 PM 78.1 °F - 66.9 °F 68% 30.07 in 10.0 mi Calm Calm - N/A   Scattered Clouds
4:53 PM 80.1 °F 81.9 °F 64.9 °F 60% 30.05 in 10.0 mi SW 5.8 mph - N/A   Partly Cloudy
5:53 PM 80.1 °F 81.7 °F 64.0 °F 58% 30.03 in 10.0 mi WSW 9.2 mph - N/A   Mostly Cloudy
6:53 PM 79.0 °F - 64.0 °F 60% 30.03 in 10.0 mi WSW 6.9 mph - N/A   Clear
7:53 PM 78.1 °F - 64.0 °F 62% 30.05 in 10.0 mi WSW 4.6 mph - N/A   Clear
8:53 PM 77.0 °F - 64.9 °F 66% 30.06 in 10.0 mi Calm Calm - N/A   Clear
9:53 PM 71.1 °F - 66.0 °F 84% 30.07 in 10.0 mi South 3.5 mph - N/A   Clear
10:53 PM 75.0 °F - 64.9 °F 71% 30.09 in 10.0 mi WSW 3.5 mph - N/A   Clear
11:53 PM 71.1 °F - 66.0 °F 84% 30.08 in 10.0 mi South 4.6 mph - N/A   Scattered Clouds